Location: *
(51.2167°N, 10.0667°E)
Time: 21:15:02
(UTC+00:00)

Cosmos 1655 Rocket - Pass Details

Date: 12 December 2019
Orbit: 970 x 1006 km, 83.0° (Epoch: 18 January)

Event Time Altitude Azimuth Distance (km) Brightness Sun altitude
Rises 17:40:47 0° 175° (S) 3,696 7.1 -22.0°
Reaches altitude 10° 17:43:20 10° 172° (S) 2,746 6.4 -22.4°
Maximum altitude 17:49:31 62° 94° (E) 1,105 3.9 -23.3°
Enters shadow 17:53:08 26° 22° (NNE) 1,843 5.2 -23.9°
